Weather in Stari Grad

Croatia     43°11′03″N   16°36′05″E
temp.,
°C
wind,
m/s
gust,
m/s
humid.,
%
clouds,
%
prec.,
mm/h
press.,
hPa
HPBL,
m
5 march, fri
fri501:00+10ese45710 0.0 1020477
04:00+10e677628 0.0 1019337
07:00+10ese687630 0.0 1018486
10:00+12ese810779 0.0 1018806
13:00+13se687518 0.1 1017844
16:00+12se337511 0.0 1017523
19:00+11ese338137 0.0 1018396
22:00+11ese348091 0.1 1020350
6 march, sat
sat601:00+11ene348196 0.1 1022283
04:00+9ne81157100 0.1 1023477
07:00+8ne81255100 0.1 1025394
10:00+10ne464263 0.0 1026476
13:00+12n233631 0.0 1027681
16:00+12nw33450 0.0 1027526
19:00+10n12480 0.0 1028366
22:00+8ne45550 0.0 1029145
7 march, sun
sun701:00+7ne34550 0.0 1029136
04:00+7ne22530 0.0 1027126
07:00+7ne22530 0.0 1027156
10:00+9n11460 0.0 1026333
13:00+10w33460 0.0 1025495
16:00+10wnw33504 0.0 1022458
19:00+9wnw23583 0.0 1022310
22:00+9nnw11600 0.0 1022288
8 march, mon
mon801:00+9ene116140 0.0 1021202
04:00+9ese2261100 0.0 1019237
07:00+9se336799 0.3 1018291
10:00+9ese2284100 1.2 1018343
13:00+8ese4490100 3.1 1017372
16:00+8e4591100 3.4 1016298
19:00+9ene3485100 4.7 1016275
22:00+9e2380100 0.3 1017307
9 march, tue
tue901:00+10ene2372100 0.3 1016355
04:00+9ne3364100 0.0 1016279
07:00+9ne3462100 0.0 1016206
10:00+10ne335377 0.0 1016397
13:00+12w114677 0.0 1016518
16:00+12wnw4461100 0.0 1016408
19:00+11n236189 0.0 1018280
22:00+10ne695382 0.0 1020367